Temp
58 57 57 58 58 57 57 56 52 47 48 55 56 60 60 60 61 62 60 62 64 63 63 64 64 65 66 68 68 68 69 69 69 69 70 69 69 70
59 58 58 58 58 57 56 56 55 52 51 54 56 57 61 64 62 61 61 60 63 63 62 61 62 64 65 65 66 66 66 67 68 68 68 68 69 69
58 59 59 59 57 56 56 56 55 53 53 58 56 58 58 58 60 59 59 59 57 63 63 61 61 61 63 63 63 64 64 65 66 66 67 67 67 68
56 57 58 62 58 58 56 55 54 54 53 53 55 54 56 57 57 57 61 64 59 63 63 62 61 60 60 61 61 62 62 63 64 65 66 66 66 67
55 55 55 56 55 57 59 58 57 60 55 57 55 54 54 55 55 56 57 57 62 62 63 62 61 60 60 60 59 59 59 60 61 62 63 64 65 65
55 55 55 55 53 52 56 57 58 56 57 56 57 53 52 54 53 53 55 54 55 63 63 63 62 61 60 60 59 58 57 58 59 60 60 61 62 63
52 55 56 57 59 58 55 51 51 50 52 53 53 55 50 50 50 51 51 53 52 54 54 55 55 55 56 60 59 57 56 57 58 59 59 58 59 60
49 52 54 56 56 57 57 57 55 50 49 49 50 49 52 52 51 54 53 51 49 53 54 54 55 56 55 55 59 57 57 57 57 57 57 57 58 58
48 48 52 55 52 51 52 54 53 55 56 53 50 51 52 52 53 50 50 49 52 55 51 53 53 54 55 61 58 57 58 57 56 56 56 56 57 57
47 47 47 48 50 51 49 46 48 49 51 54 51 52 53 54 55 56 54 53 54 55 53 50 51 52 56 55 57 57 57 57 55 56 56 56 55 56
46 47 48 49 51 51 48 45 45 47 53 55 54 54 55 55 55 52 48 47 46 47 50 51 52 51 53 54 56 57 56 56 56 56 56 56 55 55
43 46 48 47 49 50 46 45 42 44 48 49 49 50 52 52 55 53 51 47 47 45 49 46 47 47 49 52 54 54 51 54 54 54 54 54 54 53
42 43 44 47 47 47 46 44 43 45 45 45 45 45 46 47 49 51 53 52 49 48 52 52 49 47 48 50 50 52 55 57 55 55 54 53 52 52
42 43 43 45 45 45 44 45 45 44 43 41 41 40 40 42 44 46 47 48 51 51 54 54 49 49 48 48 48 51 52 53 54 54 54 55 53 53
43 43 43 43 42 41 43 43 42 40 39 38 38 39 40 42 44 43 44 45 45 48 53 52 50 50 49 47 47 49 50 51 51 52 52 53 53 52
40 38 40 40 40 39 38 38 38 38 37 36 37 38 40 39 39 41 40 41 40 41 45 47 47 47 46 48 47 46 49 46 51 49 50 51 53 53
37 34 32 33 32 33 33 34 35 35 34 35 35 36 36 37 37 38 38 37 35 36 37 41 43 43 44 45 43 47 47 47 50 50 47 48 50 51
33 30 29 29 30 30 30 31 32 33 33 34 34 34 34 34 35 36 36 34 33 34 34 36 36 36 38 41 47 43 45 43 45 48 49 46 47 51
29 28 28 28 29 29 29 29 29 31 33 32 32 32 33 33 33 33 34 33 33 33 35 36 35 33 30 29 38 44 38 40 43 44 46 45 45 48
29 27 27 28 28 28 29 29 29 30 31 31 31 31 31 31 30 30 31 31 32 32 31 33 34 34 30 30 31 37 42 41 42 42 43 46 48 48
28 27 28 28 28 28 28 29 29 29 30 29 30 30 30 29 29 30 30 33 33 30 28 29 33 40 37 37 31 33 38 41 42 41 42 41 42 43
28 28 28 28 28 28 28 29 28 29 28 28 29 29 29 29 29 29 30 29 29 29 30 32 34 34 32 32 29 31 33 37 41 42 43 43 39 37
27 27 27 27 28 28 28 28 28 28 28 28 28 28 28 28 29 30 30 30 30 30 30 29 30 31 30 30 31 30 30 32 34 34 37 43 44 44
MSLP
1019.28 1019.27 1019.32 1019.23 1019.28 1019.26 1019.29 1019.39 1019.68 1019.84 1019.11 1018.12 1017.73 1016.68 1016.39 1016.46 1016.48 1016.63 1016.79 1016.91 1017.19 1017.50 1017.76 1017.99 1018.25 1018.56 1018.71 1018.84 1018.97 1019.13 1019.20 1019.25 1019.34 1019.45 1019.59 1019.74 1019.92 1020.00
1019.01 1018.96 1018.85 1018.80 1018.76 1018.76 1018.82 1018.84 1019.07 1019.25 1018.95 1018.19 1017.71 1017.10 1016.70 1016.44 1016.20 1016.27 1016.43 1016.57 1016.65 1016.81 1016.95 1017.14 1017.34 1017.52 1017.79 1017.91 1017.99 1018.18 1018.35 1018.46 1018.57 1018.70 1018.80 1018.90 1019.03 1019.19
1018.88 1018.74 1018.62 1018.45 1018.42 1018.46 1018.44 1018.39 1018.59 1018.68 1018.58 1017.86 1017.61 1017.29 1016.98 1016.79 1016.49 1016.17 1016.02 1016.04 1016.09 1016.12 1016.28 1016.48 1016.60 1016.76 1016.90 1016.94 1016.93 1017.03 1017.20 1017.42 1017.55 1017.71 1017.85 1017.97 1018.09 1018.25
1019.22 1018.89 1018.66 1018.38 1018.18 1017.98 1017.93 1018.09 1018.13 1018.00 1018.12 1017.87 1017.54 1017.43 1017.14 1016.68 1016.41 1016.26 1015.83 1015.51 1015.45 1015.35 1015.40 1015.50 1015.70 1015.93 1016.13 1016.18 1016.27 1016.32 1016.36 1016.35 1016.42 1016.51 1016.55 1016.79 1017.02 1017.23
1019.61 1019.15 1018.79 1018.44 1018.33 1018.04 1017.83 1017.60 1017.48 1017.25 1017.33 1017.32 1017.14 1016.89 1016.70 1016.46 1016.19 1015.93 1015.60 1015.33 1014.93 1014.68 1014.68 1014.77 1014.87 1014.93 1015.01 1015.11 1015.25 1015.48 1015.62 1015.59 1015.56 1015.49 1015.68 1015.76 1015.93 1016.00
1019.87 1019.27 1018.81 1018.49 1018.35 1018.16 1017.92 1017.81 1017.58 1017.55 1017.37 1017.11 1016.84 1016.56 1016.50 1016.08 1015.91 1015.93 1015.49 1015.13 1014.89 1014.40 1014.21 1014.18 1014.16 1014.07 1014.07 1014.21 1014.28 1014.35 1014.49 1014.56 1014.70 1014.93 1015.00 1014.98 1015.00 1015.09
1019.98 1019.39 1018.82 1018.46 1018.17 1017.96 1017.83 1017.87 1017.85 1017.67 1017.48 1017.24 1017.04 1016.66 1016.32 1016.12 1016.04 1015.51 1015.18 1014.83 1014.53 1014.36 1014.07 1013.97 1013.86 1013.75 1013.57 1013.41 1013.43 1013.50 1013.55 1013.63 1013.64 1013.70 1013.86 1013.98 1013.96 1013.95
1020.08 1019.42 1018.87 1018.54 1018.36 1018.27 1018.13 1018.10 1018.16 1018.01 1017.71 1017.44 1017.04 1016.75 1016.23 1015.99 1015.90 1015.61 1015.15 1014.89 1014.61 1013.94 1013.76 1013.51 1013.35 1013.23 1013.03 1012.82 1012.48 1012.34 1012.32 1012.34 1012.44 1012.52 1012.59 1012.71 1012.80 1012.85
1020.54 1020.07 1019.47 1019.13 1018.81 1018.65 1018.49 1018.31 1018.13 1017.94 1017.70 1017.40 1016.86 1016.44 1015.99 1015.62 1015.31 1015.06 1014.85 1014.67 1014.36 1013.86 1013.67 1013.14 1012.97 1012.71 1012.30 1011.89 1011.74 1011.66 1011.53 1011.38 1011.29 1011.27 1011.30 1011.44 1011.54 1011.65
1020.95 1020.54 1020.15 1019.58 1019.32 1019.09 1018.87 1018.70 1018.53 1018.30 1017.93 1017.34 1016.96 1016.66 1016.26 1015.79 1015.36 1014.78 1014.45 1014.19 1013.92 1013.61 1013.42 1012.74 1012.57 1012.02 1011.69 1011.36 1011.10 1010.90 1010.71 1010.55 1010.49 1010.43 1010.32 1010.34 1010.44 1010.52
1021.30 1020.77 1020.36 1020.00 1019.58 1019.33 1019.03 1018.88 1018.52 1018.15 1017.61 1017.03 1016.64 1016.11 1015.61 1015.11 1014.78 1014.48 1014.18 1014.00 1013.50 1013.28 1012.93 1012.49 1012.18 1011.51 1011.21 1010.77 1010.38 1010.02 1009.70 1009.77 1009.77 1009.67 1009.55 1009.45 1009.43 1009.41
1021.67 1021.24 1020.82 1020.48 1020.08 1019.67 1019.38 1019.10 1018.81 1018.40 1017.55 1016.86 1016.49 1015.89 1015.39 1014.85 1014.26 1014.04 1013.78 1013.47 1013.07 1012.55 1011.98 1012.02 1011.53 1011.49 1010.58 1009.68 1009.44 1009.41 1009.37 1009.16 1008.96 1008.85 1008.80 1008.76 1008.71 1008.83
1022.04 1021.74 1021.38 1020.86 1020.50 1020.24 1020.04 1019.87 1019.48 1018.95 1018.35 1017.71 1017.28 1016.79 1016.30 1015.82 1015.36 1014.79 1014.10 1013.74 1013.11 1012.51 1011.80 1011.42 1010.92 1010.72 1010.47 1009.73 1009.33 1009.07 1008.86 1008.46 1008.20 1008.10 1008.01 1007.90 1007.88 1007.99
1022.44 1022.33 1022.05 1021.63 1021.33 1021.04 1020.69 1020.34 1019.92 1019.44 1018.99 1018.49 1018.07 1017.66 1017.30 1016.79 1016.14 1015.58 1014.92 1014.14 1013.43 1012.93 1011.98 1011.36 1011.00 1010.65 1010.11 1009.33 1008.78 1008.44 1008.10 1007.89 1007.59 1007.40 1007.28 1006.98 1006.87 1006.88
1023.16 1023.05 1022.83 1022.55 1022.29 1021.99 1021.60 1021.14 1020.73 1020.24 1019.81 1019.34 1018.95 1018.60 1018.18 1017.62 1016.91 1016.13 1015.17 1014.57 1013.85 1012.94 1012.20 1011.59 1011.24 1010.64 1010.11 1009.45 1008.78 1008.35 1007.94 1007.64 1007.25 1006.86 1006.59 1006.45 1006.30 1006.16
1023.81 1023.88 1023.63 1023.39 1023.07 1022.87 1022.41 1021.97 1021.60 1021.17 1020.82 1020.40 1019.90 1019.35 1018.70 1018.02 1017.33 1016.83 1016.14 1015.42 1014.77 1013.78 1013.06 1012.64 1012.13 1011.46 1010.21 1009.32 1008.68 1008.03 1007.87 1007.53 1006.99 1006.74 1006.40 1005.97 1005.70 1005.38
1024.23 1024.22 1024.01 1023.76 1023.51 1023.23 1022.99 1022.71 1022.33 1021.87 1021.45 1020.96 1020.44 1019.78 1019.15 1018.56 1017.92 1017.32 1016.69 1016.06 1015.49 1014.67 1013.83 1013.05 1012.33 1011.76 1010.91 1009.92 1008.74 1008.04 1007.41 1006.91 1006.46 1006.05 1005.82 1005.23 1004.93 1004.78
1024.67 1024.78 1024.72 1024.53 1024.28 1024.01 1023.69 1023.34 1022.93 1022.46 1022.01 1021.52 1021.04 1020.48 1019.89 1019.18 1018.39 1017.75 1017.13 1016.58 1015.95 1015.27 1014.62 1014.01 1013.08 1011.70 1010.34 1009.27 1008.96 1008.19 1007.50 1006.79 1006.21 1005.59 1004.93 1004.47 1003.80 1003.74
1025.31 1025.33 1025.28 1025.10 1024.88 1024.62 1024.27 1023.92 1023.49 1023.01 1022.52 1022.03 1021.57 1021.00 1020.42 1019.75 1019.03 1018.26 1017.53 1016.87 1016.12 1015.54 1014.97 1014.38 1013.69 1013.02 1011.86 1010.40 1009.28 1009.38 1008.78 1007.65 1006.51 1005.22 1004.57 1003.88 1003.01 1002.67
1025.66 1025.72 1025.59 1025.39 1025.10 1024.83 1024.52 1024.21 1023.80 1023.27 1022.77 1022.31 1021.81 1021.31 1020.79 1020.18 1019.43 1018.68 1018.04 1017.23 1016.39 1015.64 1015.00 1014.45 1013.84 1013.18 1012.44 1011.23 1009.44 1008.53 1008.18 1007.08 1006.49 1004.95 1003.71 1002.92 1002.13 1001.49
1025.79 1025.72 1025.57 1025.40 1025.15 1024.85 1024.57 1024.26 1023.93 1023.47 1023.04 1022.59 1022.02 1021.47 1020.91 1020.32 1019.55 1018.84 1018.13 1017.39 1016.55 1015.93 1015.15 1014.32 1013.63 1012.82 1012.09 1010.93 1009.35 1007.87 1007.43 1007.08 1006.36 1005.36 1004.07 1003.12 1001.50 1000.76
1025.74 1025.61 1025.37 1025.19 1024.97 1024.72 1024.44 1024.13 1023.79 1023.38 1022.99 1022.54 1022.01 1021.52 1020.97 1020.33 1019.56 1018.79 1017.98 1017.23 1016.48 1015.74 1014.97 1014.14 1013.30 1012.46 1011.74 1010.83 1009.42 1007.78 1006.66 1005.95 1005.39 1004.36 1003.33 1002.80 1002.01 1000.24
1025.38 1025.23 1025.06 1024.85 1024.66 1024.49 1024.23 1023.92 1023.57 1023.16 1022.73 1022.26 1021.78 1021.28 1020.68 1019.97 1019.24 1018.51 1017.67 1016.96 1016.18 1015.38 1014.71 1013.73 1012.95 1012.21 1011.42 1010.58 1009.36 1007.86 1006.57 1005.49 1004.38 1003.05 1001.69 1001.32 1000.38 999.29
Wind_Speed
6 6 5 5 4 4 3 4 4 4 4 5 4 6 5 5 6 6 7 11 15 17 18 20 20 21 22 22 22 21 21 21 21 21 22 21 22 22
4 6 5 4 5 5 4 4 3 4 7 2 4 4 4 3 5 6 6 9 13 17 18 19 21 22 23 24 24 23 23 22 22 22 22 23 23 23
5 5 6 6 4 4 3 4 4 4 8 8 3 5 6 4 6 5 6 6 6 15 17 18 20 22 23 25 25 25 25 24 25 25 25 24 24 24
7 7 6 5 6 5 4 5 4 5 5 11 5 3 5 5 5 6 6 6 6 11 17 19 20 20 22 24 24 24 25 26 27 28 28 27 27 26
8 7 7 6 6 5 5 4 4 6 5 5 7 3 4 3 5 4 5 6 6 9 12 16 19 21 23 24 24 24 23 25 27 28 28 28 28 28
10 7 7 6 5 5 5 5 6 5 5 5 6 4 4 6 3 5 7 3 4 5 7 10 11 17 22 23 22 23 24 25 26 26 26 27 28 29
9 10 6 8 11 8 3 5 5 4 5 6 6 6 3 3 4 4 4 5 4 4 4 4 4 4 6 17 17 19 21 23 26 27 28 26 28 30
9 9 6 7 8 12 14 14 11 7 7 5 6 6 9 6 3 5 4 3 5 4 4 6 4 6 5 6 14 19 19 23 25 26 27 27 27 28
10 9 10 10 9 8 12 13 12 17 16 10 8 8 9 7 6 5 5 5 8 5 3 9 4 8 6 7 11 15 19 21 23 24 26 26 28 29
9 10 10 10 10 10 8 7 7 9 11 11 8 8 10 10 10 9 8 8 7 6 4 12 4 9 7 6 12 15 15 15 17 20 22 23 25 27
10 11 10 8 19 19 11 8 8 9 12 17 18 20 20 19 14 7 8 8 9 6 4 8 8 9 7 8 8 16 16 14 14 17 19 20 21 24
9 10 18 17 18 18 11 11 10 11 11 10 10 13 14 13 19 10 8 9 9 6 5 3 3 3 7 5 7 6 4 9 12 12 13 15 17 9
7 8 8 21 21 20 18 10 12 11 13 9 9 9 10 10 10 12 11 8 8 8 7 7 5 3 5 8 3 3 5 7 6 6 12 14 15 13
9 8 10 21 21 21 15 21 19 14 8 8 8 9 10 10 11 12 14 13 11 10 11 9 6 7 9 11 11 4 5 6 7 7 7 11 14 15
9 14 19 20 20 15 22 22 17 9 9 9 9 9 9 9 11 11 13 14 14 12 11 13 10 9 7 8 9 8 9 5 5 7 5 7 8 6
10 9 13 14 17 14 12 12 9 9 10 8 8 8 8 9 9 10 10 10 10 10 13 15 16 16 12 10 9 9 8 8 7 5 6 8 8 7
7 3 4 6 7 8 8 8 8 8 9 9 9 9 9 8 9 9 9 9 9 11 12 12 15 14 12 14 12 11 10 10 9 8 6 9 8 9
5 4 4 4 6 7 7 8 8 11 8 8 8 9 9 10 10 9 9 8 9 10 10 11 13 14 14 12 12 11 11 9 9 10 10 11 11 9
3 4 4 4 4 5 6 6 7 8 9 7 8 9 9 10 14 10 10 9 10 9 10 10 12 10 12 15 13 12 13 13 14 12 9 10 12 10
3 3 4 4 4 4 5 5 7 7 8 8 8 8 9 9 10 10 10 11 11 11 11 9 9 10 11 14 17 15 18 13 13 14 12 11 12 16
3 3 3 3 4 4 4 5 6 6 8 8 8 8 9 9 10 10 10 18 19 10 11 11 11 25 11 13 13 13 11 16 16 16 14 15 13 11
3 3 3 3 4 4 4 5 6 7 6 7 7 8 9 9 10 11 10 11 11 10 11 10 11 11 11 12 16 20 13 13 17 23 26 25 14 15
3 3 4 3 3 4 4 5 6 7 7 8 7 8 10 10 10 11 10 11 11 11 12 12 11 10 11 11 19 15 22 18 15 16 15 20 27 29
Wind_Direction
245 240 230 238 243 246 237 198 191 275 282 281 257 260 235 211 218 212 211 211 213 214 219 225 229 234 232 233 233 236 237 235 233 233 233 235 237 239
260 260 251 241 236 234 232 231 212 211 263 238 298 317 316 291 228 205 219 213 217 220 224 225 228 230 234 232 232 233 233 233 236 237 236 235 236 237
314 299 289 273 262 259 256 238 229 213 259 276 254 287 298 270 281 254 231 225 225 226 228 229 232 234 235 234 232 230 229 231 231 232 235 237 237 238
336 339 323 317 291 256 244 247 237 238 229 265 269 269 263 278 262 257 247 238 226 231 230 230 229 230 233 238 241 240 235 231 231 232 232 232 232 237
332 334 324 328 320 316 304 269 252 252 231 251 270 230 249 267 287 282 269 249 242 235 237 234 233 230 230 234 236 239 240 240 237 234 235 234 233 233
323 316 314 323 339 331 320 323 326 329 315 283 273 265 238 255 238 259 278 270 267 264 260 256 239 236 234 235 236 236 239 240 242 244 243 238 235 237
312 313 318 328 336 350 332 319 322 320 317 310 302 309 287 287 252 250 257 256 268 233 256 264 267 261 245 245 245 241 241 243 243 243 244 243 239 239
301 299 315 329 357 29 13 10 5 352 318 291 285 276 285 285 306 303 295 304 292 257 263 265 240 262 257 235 232 233 235 238 242 242 243 244 243 241
359 3 1 2 30 20 7 0 349 339 330 323 299 278 275 279 278 280 283 272 280 285 280 278 256 266 254 259 247 243 241 242 240 239 240 240 241 243
353 353 355 334 10 11 3 357 350 341 329 321 319 341 327 325 316 304 298 286 284 278 272 283 276 271 272 259 255 261 265 257 249 247 245 242 241 243
347 346 346 348 348 355 352 334 325 315 308 309 324 318 313 308 296 297 294 290 287 274 252 265 271 277 271 271 266 257 255 263 269 261 253 249 245 243
349 354 355 349 344 357 11 6 349 347 329 321 316 305 301 292 288 275 268 270 274 284 250 233 248 243 281 247 242 271 280 278 274 262 255 250 247 249
2 8 9 13 17 18 19 4 2 2 351 358 353 1 0 358 355 346 339 326 321 312 305 294 282 253 245 280 250 247 254 262 249 254 257 253 246 235
16 19 11 18 21 20 19 12 15 12 5 8 4 5 356 350 347 343 342 340 336 323 317 314 302 301 293 290 285 257 245 244 246 247 245 246 250 246
24 22 22 22 24 21 21 19 14 10 10 7 5 359 352 343 338 344 346 344 337 328 339 333 328 316 302 296 299 310 314 296 265 258 240 245 251 241
31 26 22 22 25 20 18 14 9 12 10 360 357 346 345 350 351 350 342 344 337 338 338 342 341 340 317 307 307 306 301 289 290 268 253 257 262 256
31 6 3 11 9 10 10 6 4 5 3 356 354 348 348 346 345 347 342 341 342 340 337 336 334 330 319 308 299 295 288 283 281 271 261 265 255 254
15 4 2 358 1 0 1 360 358 356 352 350 352 349 346 343 340 340 339 343 337 338 337 338 334 331 332 324 303 314 300 284 279 273 263 267 269 257
16 4 1 357 352 356 354 354 349 344 340 348 345 345 343 341 339 336 335 335 334 334 333 332 336 332 327 315 313 318 311 307 300 283 266 260 266 269
15 353 347 345 337 347 345 343 341 335 342 342 340 339 337 334 333 331 335 327 327 334 327 325 324 327 317 311 305 306 297 302 311 307 292 266 262 270
343 344 329 330 322 327 327 329 332 329 342 328 330 331 332 330 325 324 322 330 328 319 321 322 317 316 308 302 300 304 304 290 287 294 303 298 281 266
310 313 310 313 310 315 321 319 327 325 325 325 325 328 323 320 318 319 318 320 317 314 312 314 315 314 313 310 306 304 306 308 298 288 282 280 273 280
283 284 285 285 293 300 308 312 320 315 316 317 318 323 319 314 315 312 310 313 312 315 318 313 312 307 308 304 303 304 304 308 307 300 289 289 287 268